Shreveport, LA

6:14 PM CDT on June 27, 2017 (GMT -0500)
Shreveport Regional

Weather History for KSHV - May, 2014

Change the Weather History Date:

Tuesday, May 27, 2014

  Actual Average Record
Temperature  
Mean Temperature 74 °F 76 °F  
Max Temperature 78 °F 86 °F 97 °F (1886)
Min Temperature 69 °F 66 °F 47 °F (1961)
Degree Days  
Heating Degree Days 0 0  
Month to date heating degree days 24 5  
Since 1 July heating degree days 2567 2224  
Cooling Degree Days 9 11  
Month to date cooling degree days 203 217  
Year to date cooling degree days 324 352  
Growing Degree Days 24 (Base 50)    
Moisture  
Dew Point 68 °F    
Average Humidity 86    
Maximum Humidity 97    
Minimum Humidity 74    
Precipitation  
Precipitation 0.47 in 0.17 in 2.38 in (2000)
Month to date precipitation 5.31 4.32  
Year to date precipitation 16.86 21.60  
Snow  
Snow 0.00 in - - ()
Month to date snowfall 0.0  
Since 1 July snowfall 1.0  
Snow Depth 0.00 in    
Sea Level Pressure  
Sea Level Pressure 29.94 in    
Wind  
Wind Speed 7 mph (SSE)    
Max Wind Speed 16 mph    
Max Gust Speed 21 mph    
Visibility 7 miles    
Events Rain , Thunderstorm    
T = Trace of Precipitation, MM = Missing Value Source: NWS Daily Summary

Daily Weather History Graph

Daily Weather History Graph

Search for Another Location

Airport or City:

Trip Planner

Search our weather history database for the weather conditions in past years. The results will help you decide how hot, cold, wet, or windy it might be!

Date:

Astronomy

May. 27, 2014 Rise Set
Actual Time 6:10 AM CDT 8:14 PM CDT
Civil Twilight 5:42 AM CDT 8:42 PM CDT
Nautical Twilight 5:09 AM CDT 9:16 PM CDT
Astronomical Twilight 4:32 AM CDT 9:52 PM CDT
Moon 5:27 AM CDT 7:22 PM CDT
Length of Visible Light 14h 59m
Length of Day
14h 04m
Waning Crescent, 1% of the Moon is Illuminated
May 27
Waning Crescent
May 28
New
Jun 5
First Quarter
Jun 12
Full
Jun 19
Last Quarter

Hourly Weather History & Observations

Time (CDT) Temp. Dew Point Humidity Pressure Visibility Wind Dir Wind Speed Gust Speed Precip Events Conditions
12:56 AM 71.1 °F 69.1 °F 93% 30.01 in 8.0 mi South 3.5 mph - 0.00 in   Overcast
1:56 AM 70.0 °F 68.0 °F 93% 30.00 in 8.0 mi Calm Calm - N/A   Mostly Cloudy
2:56 AM 70.0 °F 68.0 °F 93% 30.00 in 9.0 mi Calm Calm - N/A   Mostly Cloudy
3:56 AM 70.0 °F 66.9 °F 90% 29.99 in 10.0 mi SE 3.5 mph - N/A   Mostly Cloudy
4:56 AM 71.1 °F 68.0 °F 90% 29.96 in 8.0 mi SE 6.9 mph - N/A   Mostly Cloudy
5:39 AM 71.6 °F 69.8 °F 94% 29.96 in 7.0 mi SE 5.8 mph - N/A   Mostly Cloudy
5:56 AM 71.1 °F 69.1 °F 93% 29.95 in 7.0 mi ESE 4.6 mph - N/A   Mostly Cloudy
6:27 AM 71.6 °F 69.8 °F 94% 29.96 in 6.0 mi SE 6.9 mph - N/A   Overcast
6:41 AM 71.6 °F 69.8 °F 94% 29.96 in 5.0 mi SE 5.8 mph - 0.00 in Rain Light Rain
6:49 AM 71.6 °F 69.8 °F 94% 29.96 in 5.0 mi SE 5.8 mph - 0.00 in Rain Light Rain
6:56 AM 72.0 °F 70.0 °F 93% 29.96 in 4.0 mi SE 5.8 mph - 0.01 in Rain Light Rain
7:15 AM 73.4 °F 69.8 °F 88% 29.96 in 5.0 mi SE 6.9 mph - 0.00 in   Overcast
7:56 AM 73.0 °F 70.0 °F 90% 29.96 in 5.0 mi SE 6.9 mph - 0.00 in   Overcast
8:56 AM 73.0 °F 70.0 °F 90% 29.96 in 3.0 mi SSE 10.4 mph - 0.01 in Rain Rain
9:37 AM 73.4 °F 71.6 °F 94% 29.97 in 2.5 mi SE 8.1 mph - 0.06 in Rain Heavy Rain
9:56 AM 73.0 °F 71.1 °F 93% 29.95 in 2.5 mi SE 6.9 mph - 0.10 in Rain Rain
10:06 AM 73.4 °F 71.6 °F 94% 29.97 in 2.5 mi SE 8.1 mph - 0.02 in Rain Rain
10:36 AM 69.8 °F 66.2 °F 88% 29.98 in 2.5 mi SW 10.4 mph - 0.14 in Rain , Thunderstorm Heavy Thunderstorms and Rain
10:56 AM 71.1 °F 69.1 °F 93% 29.96 in 2.5 mi South 8.1 mph - 0.22 in Rain , Thunderstorm Thunderstorms and Rain
11:07 AM 71.6 °F 69.8 °F 94% 29.97 in 2.5 mi South 10.4 mph - 0.03 in Rain Light Rain
11:20 AM 71.6 °F 69.8 °F 94% 29.97 in 5.0 mi SSE 9.2 mph - 0.05 in Rain Light Rain
11:56 AM 71.1 °F 69.1 °F 93% 29.96 in 5.0 mi SSE 12.7 mph - 0.07 in Rain Light Rain
12:03 PM 71.6 °F 68.0 °F 88% 29.97 in 5.0 mi SSE 9.2 mph - 0.01 in Rain Light Rain
12:56 PM 70.0 °F 68.0 °F 93% 29.94 in 7.0 mi SE 9.2 mph - 0.06 in Rain Light Rain
1:56 PM 72.0 °F 68.0 °F 87% 29.92 in 10.0 mi SE 10.4 mph - 0.00 in   Overcast
2:29 PM 73.4 °F 68.0 °F 83% 29.91 in 10.0 mi SSE 10.4 mph - N/A   Overcast
2:41 PM 73.4 °F 68.0 °F 83% 29.92 in 10.0 mi SSE 10.4 mph - N/A   Overcast
2:56 PM 73.9 °F 69.1 °F 85% 29.91 in 10.0 mi South 8.1 mph - N/A   Overcast
3:52 PM 75.2 °F 69.8 °F 83% 29.89 in 10.0 mi South 9.2 mph - N/A   Mostly Cloudy
3:56 PM 75.9 °F 69.1 °F 79% 29.89 in 10.0 mi South 9.2 mph - N/A   Overcast
4:09 PM 75.2 °F 68.0 °F 78% 29.89 in 10.0 mi South 9.2 mph - N/A   Partly Cloudy
4:56 PM 75.9 °F 66.9 °F 74% 29.87 in 10.0 mi SSW 8.1 mph - N/A   Overcast
5:56 PM 75.2 °F 66.2 °F 73% 29.87 in 10.0 mi SSW 6.9 mph - N/A   Mostly Cloudy
6:56 PM 75.9 °F 66.9 °F 74% 29.87 in 10.0 mi South 9.2 mph - N/A   Mostly Cloudy
7:03 PM 75.2 °F 66.2 °F 73% 29.88 in 10.0 mi South 6.9 mph - N/A   Mostly Cloudy
7:56 PM 73.9 °F 66.0 °F 76% 29.88 in 10.0 mi SW 4.6 mph - N/A   Overcast
8:56 PM 73.0 °F 66.9 °F 81% 29.89 in 10.0 mi South 4.6 mph - N/A   Overcast
9:56 PM 72.0 °F 66.0 °F 81% 29.91 in 10.0 mi SSW 11.5 mph - N/A   Overcast
10:56 PM 70.0 °F 66.0 °F 87% 29.92 in 7.0 mi SW 4.6 mph - 0.00 in   Light Drizzle
11:11 PM 69.8 °F 64.4 °F 83% 29.92 in 10.0 mi SSW 4.6 mph - 0.00 in   Overcast
11:35 PM 69.8 °F 64.4 °F 83% 29.91 in 10.0 mi South 3.5 mph - 0.00 in   Mostly Cloudy
11:56 PM 69.1 °F 64.9 °F 87% 29.91 in 10.0 mi South 3.5 mph - 0.00 in   Overcast